Caro, MI

6:10 AM EST on December 15, 2017 (GMT -0500)
Caro

Weather History for KCFS - September, 2013

Change the Weather History Date:

Sunday, September 1, 2013

  Actual Average (KMBS) Record (KMBS)
Temperature  
Mean Temperature 64 °F -  
Max Temperature 74 °F 77 °F 88 °F (2000)
Min Temperature 55 °F 53 °F 45 °F (2017)
Growing Degree Days 14 (Base 50)    
Moisture  
Dew Point 63 °F    
Average Humidity 91    
Maximum Humidity 100    
Minimum Humidity 72    
Precipitation  
Precipitation 0.00 in - - ()
Sea Level Pressure  
Sea Level Pressure 29.80 in    
Wind  
Wind Speed 1 mph (SSE)    
Max Wind Speed 7 mph    
Max Gust Speed -    
Visibility 4 miles    
Events Fog    
Averages and records for this station are not official NWS values.
T = Trace of Precipitation, MM = Missing Value Source: NWS Daily Summary

Daily Weather History Graph

Daily Weather History Graph

Search for Another Location

Airport or City:

Trip Planner

Search our weather history database for the weather conditions in past years. The results will help you decide how hot, cold, wet, or windy it might be!

Date:

Astronomy

Sep. 01, 2013 Rise Set
Actual Time 6:57 AM EDT 8:08 PM EDT
Civil Twilight 6:28 AM EDT 8:37 PM EDT
Nautical Twilight 5:53 AM EDT 9:13 PM EDT
Astronomical Twilight 5:15 AM EDT 9:50 PM EDT
Moon 3:14 AM EDT (9/1) 5:48 PM EDT (9/1)
Length of Visible Light 14h 09m
Length of Day
13h 10m
Waning Crescent, 14% of the Moon is Illuminated
Sep 1
Waning Crescent
Sep 5
New
Sep 12
First Quarter
Sep 19
Full
Sep 26
Last Quarter

Hourly Weather History & Observations

Time (EDT) Temp. Dew Point Humidity Pressure Visibility Wind Dir Wind Speed Gust Speed Precip Events Conditions
12:15 AM 62.1 °F 61.2 °F 97% 29.87 in 3.0 mi Calm Calm - N/A   Clear
12:35 AM 59.9 °F 59.2 °F 97% 29.87 in 0.8 mi Calm Calm - N/A   Mist
12:54 AM 58.5 °F 57.9 °F 98% 29.88 in 0.5 mi Calm Calm - N/A Fog Fog
1:15 AM 58.1 °F 57.6 °F 98% 29.88 in 0.2 mi Calm Calm - N/A Fog Fog
1:35 AM 57.7 °F 57.2 °F 98% 29.87 in 0.8 mi Calm Calm - N/A   Mist
1:54 AM 58.8 °F 58.3 °F 98% 29.87 in 1.2 mi Calm Calm - N/A   Scattered Clouds
2:15 AM 58.6 °F 58.3 °F 99% 29.87 in 0.5 mi Calm Calm - N/A Fog Fog
2:35 AM 57.6 °F 57.2 °F 99% 29.86 in 0.5 mi Calm Calm - N/A Fog Fog
2:54 AM 57.4 °F 57.0 °F 99% 29.85 in 0.5 mi Calm Calm - N/A Fog Fog
3:15 AM 56.3 °F 55.9 °F 99% 29.84 in 0.5 mi Calm Calm - N/A Fog Fog
3:35 AM 56.3 °F 55.8 °F 98% 29.84 in 0.2 mi Calm Calm - N/A Fog Fog
3:54 AM 55.8 °F 55.4 °F 99% 29.83 in 0.2 mi Calm Calm - N/A Fog Fog
4:15 AM 55.9 °F 55.8 °F 99% 29.83 in 0.2 mi Calm Calm - N/A Fog Fog
4:35 AM 55.8 °F 55.6 °F 99% 29.83 in 0.5 mi Calm Calm - N/A Fog Fog
4:55 AM 56.1 °F 55.9 °F 99% 29.84 in 2.0 mi Calm Calm - N/A   Mostly Cloudy
5:14 AM 56.5 °F 56.3 °F 99% 29.83 in 0.5 mi Calm Calm - N/A Fog Fog
5:35 AM 57.0 °F 56.8 °F 99% 29.82 in 0.5 mi Calm Calm - N/A Fog Fog
5:55 AM 57.9 °F 57.7 °F 99% 29.83 in 0.8 mi North 3.5 mph - N/A   Overcast
6:14 AM 60.8 °F 60.8 °F 100% 29.83 in 0.2 mi Calm Calm - N/A Fog Fog
6:35 AM 61.2 °F 61.0 °F 99% 29.84 in 0.2 mi Calm Calm - N/A Fog Fog
6:55 AM 61.2 °F 61.0 °F 99% 29.84 in 0.2 mi Calm Calm - N/A Fog Fog
7:14 AM 61.3 °F 61.2 °F 99% 29.84 in 0.2 mi Calm Calm - N/A Fog Fog
7:35 AM 61.7 °F 61.7 °F 100% 29.84 in 0.2 mi Calm Calm - N/A Fog Fog
7:55 AM 61.7 °F 61.7 °F 100% 29.83 in 1.8 mi Calm Calm - N/A   Overcast
8:14 AM 62.4 °F 62.1 °F 99% 29.82 in 0.2 mi Calm Calm - N/A Fog Fog
8:35 AM 63.1 °F 63.0 °F 99% 29.82 in 1.2 mi East 5.8 mph - N/A   Overcast
8:55 AM 62.8 °F 62.6 °F 99% 29.82 in 0.2 mi ESE 3.5 mph - N/A Fog Fog
9:14 AM 62.4 °F 62.2 °F 99% 29.83 in 0.5 mi Calm Calm - N/A Fog Fog
9:35 AM 63.1 °F 63.0 °F 99% 29.82 in 1.8 mi ESE 3.5 mph - N/A   Overcast
9:54 AM 63.7 °F 63.5 °F 99% 29.82 in 2.5 mi SSE 3.5 mph - N/A   Overcast
10:14 AM 65.1 °F 64.9 °F 99% 29.82 in 5.0 mi Calm Calm - N/A   Overcast
10:35 AM 66.7 °F 66.6 °F 99% 29.82 in 10.0 mi South 4.6 mph - N/A   Mostly Cloudy
10:54 AM 67.1 °F 66.9 °F 99% 29.82 in 10.0 mi Calm Calm - N/A   Mostly Cloudy
11:15 AM 67.8 °F 67.5 °F 99% 29.82 in 10.0 mi Calm Calm - N/A   Mostly Cloudy
11:35 AM 70.3 °F 68.7 °F 95% 29.82 in 10.0 mi Calm Calm - N/A   Overcast
11:54 AM 71.8 °F 64.6 °F 78% 29.82 in 10.0 mi Calm Calm - N/A   Overcast
12:15 PM 72.9 °F 64.9 °F 76% 29.81 in 10.0 mi SE 3.5 mph - N/A   Overcast
12:35 PM 72.9 °F 64.8 °F 76% 29.82 in 10.0 mi SE 4.6 mph - N/A   Overcast
12:54 PM 72.9 °F 63.7 °F 73% 29.81 in 10.0 mi SSW 5.8 mph - N/A   Overcast
1:15 PM 73.2 °F 63.7 °F 72% 29.81 in 10.0 mi SW 5.8 mph - N/A   Overcast
1:35 PM 73.4 °F 64.6 °F 74% 29.80 in 10.0 mi SSE 5.8 mph - N/A   Overcast
1:54 PM 73.8 °F 64.2 °F 72% 29.80 in 10.0 mi South 6.9 mph - N/A   Overcast
2:15 PM 73.4 °F 64.8 °F 74% 29.80 in 10.0 mi South 3.5 mph - N/A   Overcast
2:34 PM 72.1 °F 64.4 °F 77% 29.80 in 10.0 mi South 5.8 mph - N/A   Overcast
2:55 PM 71.8 °F 64.8 °F 78% 29.80 in 10.0 mi South 4.6 mph - N/A   Overcast
3:15 PM 72.0 °F 64.9 °F 78% 29.79 in 10.0 mi SSE 3.5 mph - N/A   Overcast
3:34 PM 72.9 °F 64.9 °F 76% 29.79 in 10.0 mi SSW 4.6 mph - N/A   Overcast
3:55 PM 73.4 °F 64.8 °F 74% 29.79 in 10.0 mi South 4.6 mph - N/A   Overcast
4:14 PM 72.9 °F 64.9 °F 76% 29.78 in 7.0 mi SSE 3.5 mph - N/A   Overcast
4:35 PM 72.7 °F 65.8 °F 79% 29.78 in 7.0 mi Calm Calm - N/A   Overcast
4:55 PM 72.7 °F 66.2 °F 80% 29.78 in 7.0 mi SSE 3.5 mph - N/A   Overcast
5:14 PM 73.6 °F 66.9 °F 80% 29.77 in 7.0 mi SE 4.6 mph - N/A   Overcast
5:35 PM 74.1 °F 67.1 °F 79% 29.75 in 7.0 mi SSE 4.6 mph - N/A   Mostly Cloudy
5:55 PM 74.1 °F 66.9 °F 78% 29.75 in 7.0 mi South 5.8 mph - N/A   Mostly Cloudy
6:14 PM 74.1 °F 67.6 °F 80% 29.74 in 7.0 mi South 3.5 mph - N/A   Mostly Cloudy
6:35 PM 73.8 °F 67.6 °F 81% 29.74 in 7.0 mi SE 3.5 mph - N/A   Overcast
6:55 PM 73.8 °F 68.0 °F 82% 29.74 in 7.0 mi Calm Calm - N/A   Overcast
7:14 PM 73.6 °F 68.0 °F 83% 29.75 in 7.0 mi Calm Calm - N/A   Overcast
7:35 PM 73.0 °F 68.0 °F 84% 29.74 in 5.0 mi Calm Calm - N/A   Haze
7:55 PM 73.4 °F 68.4 °F 84% 29.75 in 5.0 mi Calm Calm - N/A   Haze
8:14 PM 71.2 °F 67.6 °F 88% 29.75 in 5.0 mi Calm Calm - N/A   Mostly Cloudy
8:35 PM 68.4 °F 66.4 °F 93% 29.75 in 4.0 mi Calm Calm - N/A   Mostly Cloudy
8:54 PM 67.6 °F 66.2 °F 95% 29.75 in 4.0 mi Calm Calm - N/A   Scattered Clouds
9:15 PM 66.6 °F 65.5 °F 96% 29.75 in 4.0 mi Calm Calm - N/A   Clear
9:35 PM 66.6 °F 65.7 °F 97% 29.74 in 2.0 mi Calm Calm - N/A   Clear
9:54 PM 66.2 °F 65.3 °F 97% 29.74 in 3.0 mi Calm Calm - N/A   Clear
10:15 PM 66.6 °F 65.7 °F 97% 29.75 in 4.0 mi Calm Calm - N/A   Clear
10:34 PM 65.7 °F 64.8 °F 97% 29.75 in 3.0 mi Calm Calm - N/A   Mist
10:55 PM 65.1 °F 64.4 °F 98% 29.75 in 0.8 mi Calm Calm - N/A   Mist
11:15 PM 65.8 °F 65.3 °F 98% 29.74 in 3.0 mi Calm Calm - N/A   Scattered Clouds
11:34 PM 66.0 °F 65.5 °F 98% 29.74 in 3.0 mi Calm Calm - N/A   Mist
11:55 PM 66.9 °F 66.2 °F 98% 29.75 in 3.0 mi Calm Calm - N/A   Scattered Clouds